Weather Roundup
Issued by NWS Chicago, IL

Home | Current Version | Previous Version | Text Only | Print | Product List | Glossary On
Versions: 1 2 3 4 5 6 7 8 9 10 11 12 13 14 15 16 17 18 19 20 21 22 23 24 25 26 27 28 29 30 31 32 33 34 35 36 37 38 39 40 41 42 43 44 45 46 47 48 49 50
298
NZUS59 KLOT 290008
HRRLOT

CHICAGO AREA WEATHER ROUNDUP
NATIONAL WEATHER SERVICE CHICAGO/ROMEOVILLE IL
700 PM CDT THU JUL 28 2016

NOTE: "FAIR" INDICATES FEW OR NO CLOUDS BELOW 12,000 FEET WITH NO
SIGNIFICANT WEATHER AND/OR OBSTRUCTIONS TO VISIBILITY.

* THESE STATIONS ARE NOT UNDER NWS QUALITY CONTROL. THEY ALSO MAY NOT
  REPORT WEATHER SUCH AS PRECIPITATION OR FOG.

ILZ005-006-012>014-019>023-290100-
NORTHEAST ILLINOIS

CITY           SKY/WX    TMP DP  RH WIND       PRES   REMARKS
OHARE          PTSUNNY   75  70  84 NE12      29.88R
6HR MIN TEMP:  73; 6HR MAX TEMP:  76; 6HR PCP:  0.34;

MIDWAY         CLOUDY    77  71  82 E10       29.87S
6HR MIN TEMP:  74; 6HR MAX TEMP:  84; 6HR PCP:  0.14;

AURORA         PTSUNNY   75  70  84 CALM      29.87F
6HR MIN TEMP:  70; 6HR MAX TEMP:  87; 6HR PCP:  0.22;

LANSING*       CLOUDY    75  69  81 NE6       29.88S
JOLIET*        PTSUNNY   77  71  81 CALM      29.86F
WAUKEGAN       CLOUDY    71  67  87 N8        29.90R
6HR MIN TEMP:  70; 6HR MAX TEMP:  82; 6HR PCP:  0.02;

DUPAGE AIRPORT CLOUDY    75  71  87 E8        29.86F
6HR MIN TEMP:  67; 6HR MAX TEMP:  86; 6HR PCP:  0.61;

WHEELING       MOSUNNY   71  67  87 NE10      29.91R
6HR MIN TEMP:  71; 6HR MAX TEMP:  80; 6HR PCP:  0.14;

KANKAKEE*      SUNNY     76  67  71 E7        29.88R
MORRIS*        PTSUNNY   75  69  82 CALM      29.84F
LEWIS AIRPORT* PTSUNNY   75  66  74 E5        29.86F
NORTHERLY ISL    N/A     73  70  90 N8          N/A
$$

WIZ051-052-058>065-066-070>072-290100-
SOUTHEAST WISCONSIN

CITY           SKY/WX    TMP DP  RH WIND       PRES   REMARKS
MILWAUKEE      PTSUNNY   69  64  84 NE16      29.93S
6HR MIN TEMP:  67; 6HR MAX TEMP:  77; 6HR PCP: TRACE;

KENOSHA*       CLOUDY    71  67  87 NE15      29.91F
RACINE*        CLOUDY    70  65  84 N12       29.94F
BURLINGTON     MOSUNNY   69  65  87 NE13      29.92S
WAUKESHA       PTSUNNY   66  61  82 NE12G18   29.95F
WEST BEND      CLOUDY    68  59  73 NE9G16    29.95S
$$

INZ001>003-010>013-019-020-290100-
NORTHWEST INDIANA

CITY           SKY/WX    TMP DP  RH WIND       PRES   REMARKS
GARY*          PTSUNNY   77  75  94 N6        29.90R
MICHIGAN CITY* NOT AVBL
RENSSELAER*    NOT AVBL
VALPARAISO     CLOUDY    79  71  76 N5        29.89S HX  82
$$

LMZ740>746-290100-
SOUTHERN LAKE MICHIGAN

STATION/POSITION TIME  SKY/WX   TEMP WIND        PRES    VSBY
                                AIR  DIR/SP/G
                 (UTC)          (F)  (DEG/KT/KT) (MB)    (MI)
HARRISON CRIB    2300            74  340/ 13/ 14   N/A
BURNHAM HARBOR   0000            73   10/  7/ 11   N/A
CALUMET HARBOR   2306                300/  3/  5   N/A
BURNS HARBOR     2300            76   50/  9/ 16 1012.2F
MICHIGAN CITY    2300            77   60/  8/ 10   N/A
$$

ABBREVIATIONS USED IN REMARKS
   TC - TEMPERATURE IN CELSIUS
  WCI - WIND CHILL INDEX
   HX - HEAT INDEX
  VSB - VISIBILITY
$$




USA.gov is the U.S. government's official web portal to all federal, state and local government web resources and services.